Location: Gadern
(49.5873°N, 8.8138°E)
Time: 06:46:13
(UTC+00:00)

USA 234 - Pass Details

Date: 19 May 2025
Orbit: 1097 x 1111 km, 123.0° (Epoch: 19 June)

Event Time Altitude Azimuth Distance (km) Brightness Sun altitude
Rises 22:30:43 0° 63° (ENE) 3,921 6.3 -19.5°
Reaches altitude 10° 22:33:14 10° 60° (ENE) 2,964 5.7 -19.6°
Maximum altitude 22:39:34 55° 345° (NNW) 1,315 4.0 -19.8°
Drops below altitude 10° 22:45:54 10° 270° (W) 2,969 5.6 -20.0°
Sets 22:48:26 0° 266° (W) 3,927 6.2 -20.1°
